Port Aransas, TX

12:52 AM CST on February 20, 2018 (GMT -0600)
Port Aransas

Weather History for KRAS - February, 2013

Change the Weather History Date:

Monday, February 18, 2013

  Actual Average (KNGP) Record (KNGP)
Temperature  
Mean Temperature 66 °F -  
Max Temperature 69 °F 67 °F 80 °F (2000)
Min Temperature 62 °F 53 °F 39 °F (2015)
Growing Degree Days 16 (Base 50)    
Moisture  
Dew Point 61 °F    
Average Humidity 86    
Maximum Humidity 94    
Minimum Humidity 78    
Precipitation  
Precipitation 0.00 in - - ()
Sea Level Pressure  
Sea Level Pressure 29.94 in    
Wind  
Wind Speed 14 mph (South)    
Max Wind Speed 16 mph    
Max Gust Speed 24 mph    
Visibility 6 miles    
Events      
Averages and records for this station are not official NWS values.
T = Trace of Precipitation, MM = Missing Value Source: NWS Daily Summary

Daily Weather History Graph

Daily Weather History Graph

Search for Another Location

Airport or City:

Trip Planner

Search our weather history database for the weather conditions in past years. The results will help you decide how hot, cold, wet, or windy it might be!

Date:

Astronomy

Feb. 18, 2013 Rise Set
Actual Time 7:02 AM CST 6:21 PM CST
Civil Twilight 6:39 AM CST 6:45 PM CST
Nautical Twilight 6:11 AM CST 7:13 PM CST
Astronomical Twilight 5:44 AM CST 7:40 PM CST
Moon 12:23 PM CST (2/18) 1:30 AM CST (2/18)
Length of Visible Light 12h 06m
Length of Day
11h 18m
First Quarter, 58% of the Moon is Illuminated
Feb 18
First Quarter
Feb 25
Full
Mar 4
Last Quarter
Mar 11
New
Mar 19
First Quarter

Hourly Weather History & Observations

Time (CST) Temp. Dew Point Humidity Pressure Visibility Wind Dir Wind Speed Gust Speed Precip Events Conditions
12:15 AM 62.6 °F 57.2 °F 82% 30.01 in 7.0 mi SSE 16.1 mph 24.2 mph N/A   Overcast
12:55 AM 62.6 °F 59.0 °F 88% 30.00 in 7.0 mi SSE 16.1 mph 21.9 mph N/A   Overcast
1:15 AM 62.6 °F 59.0 °F 88% 30.00 in 7.0 mi South 13.8 mph 19.6 mph N/A   Overcast
1:35 AM 62.6 °F 59.0 °F 88% 29.99 in 7.0 mi South 15.0 mph 20.7 mph N/A   Overcast
1:55 AM 62.6 °F 59.0 °F 88% 29.99 in 7.0 mi South 13.8 mph 18.4 mph N/A   Overcast
2:15 AM 62.6 °F 59.0 °F 88% 29.98 in 7.0 mi SSE 15.0 mph 20.7 mph N/A   Overcast
2:35 AM 62.6 °F 59.0 °F 88% 29.97 in 7.0 mi SSE 13.8 mph - N/A   Overcast
2:55 AM 64.4 °F 59.0 °F 83% 29.96 in 7.0 mi South 15.0 mph 19.6 mph N/A   Overcast
3:15 AM 62.6 °F 59.0 °F 88% 29.96 in 7.0 mi South 13.8 mph 17.3 mph N/A   Overcast
3:35 AM 62.6 °F 59.0 °F 88% 29.95 in 7.0 mi SSE 13.8 mph 19.6 mph N/A   Overcast
3:55 AM 62.6 °F 59.0 °F 88% 29.94 in 7.0 mi SSE 12.7 mph - N/A   Overcast
4:15 AM 62.6 °F 59.0 °F 88% 29.93 in 7.0 mi SSE 15.0 mph 20.7 mph N/A   Overcast
4:35 AM 62.6 °F 60.8 °F 94% 29.93 in 7.0 mi SSE 16.1 mph 19.6 mph N/A   Overcast
5:15 AM 62.6 °F 60.8 °F 94% 29.92 in 7.0 mi SSE 15.0 mph - N/A   Overcast
5:35 AM 64.4 °F 60.8 °F 88% 29.92 in 7.0 mi SSE 13.8 mph 18.4 mph N/A   Overcast
5:55 AM 64.4 °F 60.8 °F 88% 29.92 in 7.0 mi SSE 16.1 mph 20.7 mph N/A   Overcast
6:15 AM 64.4 °F 60.8 °F 88% 29.92 in 7.0 mi SSE 15.0 mph - N/A   Overcast
6:55 AM 64.4 °F 60.8 °F 88% 29.92 in 7.0 mi SSE 12.7 mph - N/A   Overcast
7:15 AM 64.4 °F 60.8 °F 88% 29.93 in 5.0 mi SSE 12.7 mph 19.6 mph N/A   Overcast
7:35 AM 64.4 °F 60.8 °F 88% 29.93 in 5.0 mi SSE 10.4 mph - N/A   Overcast
7:55 AM 64.4 °F 60.8 °F 88% 29.93 in 5.0 mi SSE 12.7 mph - N/A   Overcast
8:15 AM 64.4 °F 60.8 °F 88% 29.94 in 5.0 mi SSE 11.5 mph - N/A   Overcast
8:35 AM 64.4 °F 60.8 °F 88% 29.94 in 5.0 mi South 13.8 mph 18.4 mph N/A   Overcast
8:55 AM 64.4 °F 60.8 °F 88% 29.94 in 5.0 mi South 15.0 mph - N/A   Overcast
9:15 AM 64.4 °F 60.8 °F 88% 29.94 in 5.0 mi South 16.1 mph 20.7 mph N/A   Overcast
9:35 AM 64.4 °F 60.8 °F 88% 29.95 in 5.0 mi South 13.8 mph 18.4 mph N/A   Overcast
9:55 AM 66.2 °F 60.8 °F 83% 29.95 in 5.0 mi South 12.7 mph 18.4 mph N/A   Haze
10:15 AM 68.0 °F 62.6 °F 83% 29.95 in 5.0 mi South 12.7 mph 19.6 mph N/A   Haze
10:35 AM 68.0 °F 62.6 °F 83% 29.95 in 5.0 mi South 16.1 mph - N/A   Haze
10:55 AM 68.0 °F 62.6 °F 83% 29.95 in 7.0 mi South 11.5 mph 19.6 mph N/A   Overcast
11:15 AM 68.0 °F 62.6 °F 83% 29.94 in 5.0 mi South 12.7 mph 17.3 mph N/A   Haze
11:35 AM 68.0 °F 62.6 °F 83% 29.94 in 5.0 mi South 12.7 mph 19.6 mph N/A   Haze
11:55 AM 68.0 °F 62.6 °F 83% 29.94 in 5.0 mi South 11.5 mph 17.3 mph N/A   Haze
12:15 PM 66.2 °F 60.8 °F 83% 29.96 in 5.0 mi South 11.5 mph - N/A   Haze
12:35 PM 68.0 °F 62.6 °F 83% 29.94 in 5.0 mi South 10.4 mph - N/A   Haze
12:55 PM 68.0 °F 62.6 °F 83% 29.93 in 7.0 mi South 12.7 mph - N/A   Overcast
1:15 PM 69.8 °F 62.6 °F 78% 29.93 in 7.0 mi South 10.4 mph - N/A   Overcast
1:35 PM 68.0 °F 60.8 °F 78% 29.93 in 5.0 mi South 8.1 mph - N/A   Haze
1:55 PM 68.0 °F 62.6 °F 83% 29.90 in 5.0 mi South 12.7 mph - N/A   Haze
2:15 PM 69.8 °F 62.6 °F 78% 29.89 in 7.0 mi South 16.1 mph - N/A   Overcast
2:35 PM 69.8 °F 62.6 °F 78% 29.89 in 7.0 mi South 15.0 mph 19.6 mph N/A   Overcast
2:55 PM 69.8 °F 62.6 °F 78% 29.88 in 5.0 mi South 16.1 mph 20.7 mph N/A   Haze
3:35 PM 69.8 °F 62.6 °F 78% 29.87 in 5.0 mi SSE 16.1 mph 20.7 mph N/A   Haze
3:55 PM 68.0 °F 60.8 °F 78% 29.87 in 7.0 mi SSE 16.1 mph 23.0 mph N/A   Mostly Cloudy
4:15 PM 68.0 °F 60.8 °F 78% 29.87 in 7.0 mi SSE 13.8 mph 20.7 mph N/A   Scattered Clouds
4:35 PM 68.0 °F 60.8 °F 78% 29.87 in 5.0 mi SSE 13.8 mph - N/A   Haze
5:15 PM 68.0 °F 60.8 °F 78% 29.86 in 7.0 mi South 16.1 mph - N/A   Clear
5:35 PM 68.0 °F 60.8 °F 78% 29.88 in 7.0 mi South 12.7 mph 20.7 mph N/A   Clear
5:55 PM 66.2 °F 60.8 °F 83% 29.88 in 5.0 mi SSE 13.8 mph - N/A   Haze
6:15 PM 64.4 °F 60.8 °F 88% 29.89 in 5.0 mi South 11.5 mph 17.3 mph N/A   Scattered Clouds
6:55 PM 64.4 °F 60.8 °F 88% 29.91 in 7.0 mi South 11.5 mph - N/A   Clear
7:15 PM 64.4 °F 60.8 °F 88% 29.91 in 7.0 mi South 10.4 mph 16.1 mph N/A   Clear
7:35 PM 64.4 °F 60.8 °F 88% 29.92 in 7.0 mi South 10.4 mph - N/A   Clear
7:55 PM 64.4 °F 60.8 °F 88% 29.93 in 7.0 mi South 9.2 mph - N/A   Clear
8:15 PM 64.4 °F 60.8 °F 88% 29.94 in 7.0 mi South 11.5 mph - N/A   Clear
8:35 PM 64.4 °F 60.8 °F 88% 29.95 in 7.0 mi South 12.7 mph - N/A   Clear
8:55 PM 64.4 °F 60.8 °F 88% 29.96 in 5.0 mi South 11.5 mph - N/A   Clear
9:15 PM 62.6 °F 60.8 °F 94% 29.97 in 5.0 mi South 9.2 mph - N/A   Clear
9:35 PM 62.6 °F 60.8 °F 94% 29.98 in 5.0 mi South 9.2 mph - N/A   Clear
9:55 PM 62.6 °F 60.8 °F 94% 29.98 in 5.0 mi South 9.2 mph - N/A   Clear
10:15 PM 62.6 °F 60.8 °F 94% 30.00 in 5.0 mi South 8.1 mph - N/A   Clear
10:35 PM 62.6 °F 60.8 °F 94% 30.00 in 5.0 mi South 9.2 mph - N/A   Clear
10:55 PM 62.6 °F 60.8 °F 94% 30.00 in 5.0 mi South 10.4 mph - N/A   Clear
11:15 PM 62.6 °F 60.8 °F 94% 30.00 in 5.0 mi SSW 10.4 mph - N/A   Clear
11:35 PM 62.6 °F 60.8 °F 94% 30.00 in 5.0 mi SSW 10.4 mph - N/A   Clear
11:55 PM 62.6 °F 60.8 °F 94% 30.00 in 5.0 mi SSW 8.1 mph - N/A   Clear